Location: Newark
(49.8969°N, 3.3422°E)
Time: 20:43:39
(UTC+00:00)

Vanguard 2 - All Passes

Search period start: 26 January 2020 00:00
Search period end: 05 February 2020 00:00
Orbit: 553 x 2938 km, 32.9° (Epoch: 25 January)

Date Brightness Start Highest point End Pass type
(mag) Time Alt. Az. Time Alt. Az. Time Alt. Az.
26 Jan - 09:47:45 10° SSW 09:56:43 21° SSE 10:03:28 10° ESE daylight
26 Jan - 11:56:49 10° SW 12:05:22 25° S 12:11:19 10° SE daylight
26 Jan - 14:08:04 10° WSW 14:13:01 17° SSW 14:16:50 10° SSE daylight
27 Jan - 07:58:55 10° S 08:05:15 14° SSE 08:10:42 10° SE daylight
27 Jan - 10:04:15 10° SW 10:14:21 25° SSE 10:21:39 10° ESE daylight
27 Jan - 12:14:16 10° WSW 12:22:56 26° S 12:28:56 10° SE daylight
27 Jan - 14:26:20 10° WSW 14:30:21 14° SSW 14:33:39 10° S daylight
28 Jan - 08:13:40 10° S 08:22:48 18° SSE 08:30:12 10° ESE daylight
28 Jan - 10:21:09 10° SW 10:32:00 28° S 10:39:36 10° ESE daylight
28 Jan - 12:31:54 10° WSW 12:40:28 26° SSW 12:46:24 10° SE daylight
28 Jan - 14:45:13 10° SW 14:47:37 12° SW 14:49:45 10° SSW daylight
29 Jan - 08:29:28 10° SSW 08:40:23 23° SSE 08:48:51 10° ESE daylight
29 Jan - 10:38:18 10° SW 10:49:37 30° S 10:57:24 10° ESE daylight
29 Jan - 12:49:41 10° WSW 12:57:56 24° SSW 13:03:43 10° SSE daylight
30 Jan - 06:41:33 10° S 06:48:35 14° SE 06:54:53 10° ESE visible
30 Jan - 08:45:50 10° SSW 08:57:58 27° SSE 09:07:05 10° ESE daylight
30 Jan - 10:55:40 10° WSW 11:07:13 32° S 11:15:04 10° SE daylight
30 Jan - 13:07:38 10° WSW 13:15:19 22° SSW 13:20:52 10° SSE daylight
31 Jan - 06:55:59 10° S 07:06:01 19° SSE 07:14:38 10° ESE daylight
31 Jan - 09:02:35 10° SW 09:15:35 31° SSE 09:25:06 10° ESE daylight
31 Jan - 11:13:13 10° WSW 11:24:46 32° S 11:32:36 10° SE daylight
31 Jan - 13:25:48 10° WSW 13:32:37 19° SSW 13:37:44 10° S daylight
01 Feb - 07:11:33 10° SSW 07:23:30 23° SSE 07:33:27 10° ESE daylight
01 Feb - 09:19:38 10° SW 09:33:11 34° S 09:42:56 10° ESE daylight
01 Feb - 11:30:54 10° WSW 11:42:17 31° SSW 11:50:02 10° SE daylight
01 Feb - 13:44:20 10° WSW 13:49:49 15° SW 13:54:11 10° S daylight
02 Feb - 05:25:24 10° SSE 05:31:37 13° SE 05:37:33 10° ESE visible
02 Feb - 07:27:44 10° SSW 07:41:00 28° SSE 07:51:48 10° ESE daylight
02 Feb - 09:36:55 10° SW 09:50:47 36° S 10:00:39 10° ESE daylight
02 Feb - 11:48:43 10° WSW 11:59:43 29° SSW 12:07:19 10° SE daylight
02 Feb - 14:03:43 10° WSW 14:06:55 12° SW 14:09:44 10° SSW daylight
03 Feb - 05:39:07 10° S 05:48:55 18° SE 05:57:59 10° ESE visible
03 Feb - 07:44:20 10° SW 07:58:32 32° SSE 08:09:53 10° ESE daylight
03 Feb - 09:54:22 10° WSW 10:08:22 37° S 10:18:15 10° ESE daylight
03 Feb - 12:06:41 10° WSW 12:17:04 26° SSW 12:24:25 10° SSE daylight
04 Feb - 05:54:20 10° S 06:06:14 23° SSE 06:17:06 10° ESE visible
04 Feb - 08:01:16 10° SW 08:16:06 36° SSE 08:27:48 10° ESE daylight
04 Feb - 10:11:58 10° WSW 10:25:55 37° S 10:35:46 10° SE daylight
04 Feb - 12:24:51 10° WSW 12:34:20 23° SSW 12:41:16 10° SSE daylight
